Location: Erdweis
(48.5167°N, 15.3500°E)
Time: 01:30:16
(UTC+00:00)

COSMOS 2406 - Pass Details

Date: 18 September 2020
Orbit: 844 x 863 km, 71.0° (Epoch: 29 October)

Event Time Altitude Azimuth Distance (km) Brightness Sun altitude
Rises 19:03:17 0° 335° (NNW) 3,415 7.2 -19.8°
Reaches altitude 10° 19:05:58 10° 345° (NNW) 2,476 6.2 -20.2°
Maximum altitude 19:11:08 34° 50° (NE) 1,354 4.1 -21.0°
Enters shadow 19:12:16 32° 74° (ENE) 1,429 4.0 -21.1°
